Simultaneous Nadir Overpasses (SNOs) Predictions

Prediction of SNOs between NOAA-19 and METOP-C Satellite Orbit:

Table of predicted SNOs for the next 14.0 days since TLE Epoch: 12/21/2024
Index Date (NOAA-19) Time (NOAA-19) Lat,Lon (NOAA-19) SZA (NOAA-19 ) Date (METOP-C) Time (METOP-C) Lat,Lon (METOP-C) SZA (METOP-C ) Distance(km) Time Diff (sec)
1 12/22/2024 18:16:07 -71.06,-157.90 59.41 12/22/2024 18:17:19 -71.05,-157.85 59.29 2.44 72
2 12/22/2024 19:06:37 69.30, 12.18 122.02 12/22/2024 19:07:28 69.31, 12.16 122.09 0.76 51
3 12/22/2024 19:57:04 -67.93,-178.65 56.91 12/22/2024 19:57:42 -67.94,-178.69 56.87 2.39 38
4 12/22/2024 20:47:43 66.57, -9.76 124.13 12/22/2024 20:47:59 66.57, -9.77 124.16 0.25 16
5 12/22/2024 21:38:10 -65.19, 159.03 54.84 12/22/2024 21:38:13 -65.19, 159.02 54.84 0.52 3
6 12/22/2024 22:28:33 62.90, -31.57 126.82 12/22/2024 22:28:14 62.90, -31.56 126.79 0.74 19
7 12/22/2024 23:19:04 -61.74, 136.69 52.37 12/22/2024 23:18:32 -61.72, 136.72 52.41 2.11 32
8 12/23/2024 00:09:02 57.99, -53.35 130.17 12/23/2024 00:08:08 57.97, -53.32 130.07 2.51 54
9 12/23/2024 00:58:58 -54.87, 115.84 47.86 12/23/2024 00:57:52 -54.86, 115.84 48.00 0.27 66
10 01/03/2025 21:41:20 73.22, -33.12 117.76 01/03/2025 21:42:23 73.23, -33.15 117.82 1.47 63
11 01/03/2025 22:32:07 -72.75, 135.21 61.84 01/03/2025 22:32:53 -72.74, 135.23 61.78 0.80 46
12 01/03/2025 23:22:47 71.71, -55.43 119.02 01/03/2025 23:23:15 71.73, -55.46 119.04 1.62 28
13 01/04/2025 00:13:34 -71.24, 112.72 60.60 01/04/2025 00:13:45 -71.23, 112.75 60.57 1.73 11
14 01/04/2025 01:04:07 69.80, -77.63 120.56 01/04/2025 01:04:00 69.81, -77.65 120.54 1.63 7
15 01/04/2025 01:54:32 -68.17, 91.97 58.19 01/04/2025 01:54:09 -68.18, 91.91 58.24 2.85 23
16 01/04/2025 02:45:15 67.19, -99.55 122.56 01/04/2025 02:44:33 67.20, -99.57 122.48 1.41 42



Historial Predications of SNOs between NOAA-19 and METOP-C
